Location: Foligno
(42.9600°N, 12.7050°E)
Time: 08:01:12
(UTC+02:00)

ISS - Pass Details

Date: 21 May 2018
Orbit: 402 x 407 km, 51.6° (Epoch: 23 May)

Event Time Altitude Azimuth Distance (km) Brightness Sun altitude
Rises 03:57:33 0° 304° (NW) 2,319 -0.1 -15.6°
Reaches altitude 10° 03:59:39 10° 308° (NW) 1,457 -1.1 -15.3°
Maximum altitude 04:02:53 63° 31° (NNE) 452 -3.4 -14.9°
Drops below altitude 10° 04:06:07 10° 113° (ESE) 1,451 -0.8 -14.5°
Sets 04:08:12 0° 117° (ESE) 2,307 0.2 -14.2°
